TimeEDT,TemperatureF,Dew PointF,Humidity,Sea Level PressureIn,VisibilityMPH,Wind Direction,Wind SpeedMPH,Gust SpeedMPH,PrecipitationIn,Events,Conditions,WindDirDegrees,DateUTC
12:52 AM,17.1,14.0,88,29.81,6.0,Calm,Calm,-,N/A,,Clear,0,2013-03-21 04:52:00
1:06 AM,17.6,14.0,86,29.79,2.0,Calm,Calm,-,N/A,,Clear,0,2013-03-21 05:06:00
1:16 AM,15.8,14.0,93,29.79,6.0,Calm,Calm,-,N/A,,Clear,0,2013-03-21 05:16:00
1:34 AM,15.8,12.2,86,29.79,1.8,Calm,Calm,-,N/A,,Clear,0,2013-03-21 05:34:00
1:48 AM,15.8,12.2,86,29.79,3.0,Calm,Calm,-,N/A,,Clear,0,2013-03-21 05:48:00
1:52 AM,16.0,12.9,88,29.82,5.0,Calm,Calm,-,N/A,,Clear,0,2013-03-21 05:52:00
2:52 AM,15.1,12.9,91,29.81,7.0,Calm,Calm,-,N/A,,Clear,0,2013-03-21 06:52:00
3:06 AM,14.0,12.2,93,29.79,1.8,Calm,Calm,-,N/A,,Clear,0,2013-03-21 07:06:00
3:13 AM,12.2,10.4,92,29.79,2.5,Calm,Calm,-,N/A,,Clear,0,2013-03-21 07:13:00
3:20 AM,10.4,8.6,92,29.79,9.0,Calm,Calm,-,N/A,,Clear,0,2013-03-21 07:20:00
3:39 AM,10.4,8.6,92,29.78,1.5,Calm,Calm,-,N/A,,Clear,0,2013-03-21 07:39:00
3:41 AM,10.4,8.6,92,29.78,0.8,Calm,Calm,-,N/A,,Partly Cloudy,0,2013-03-21 07:41:00
3:49 AM,12.2,8.6,85,29.78,1.2,Calm,Calm,-,N/A,,Scattered Clouds,0,2013-03-21 07:49:00
3:52 AM,12.9,9.0,84,29.80,1.5,Calm,Calm,-,N/A,,Scattered Clouds,0,2013-03-21 07:52:00
3:54 AM,12.2,10.4,92,29.77,0.8,Calm,Calm,-,N/A,,Scattered Clouds,0,2013-03-21 07:54:00
4:17 AM,12.2,8.6,85,29.77,1.8,Calm,Calm,-,N/A,,Partly Cloudy,0,2013-03-21 08:17:00
4:24 AM,10.4,6.8,85,29.77,8.0,Calm,Calm,-,N/A,,Scattered Clouds,0,2013-03-21 08:24:00
4:52 AM,10.0,6.1,84,29.79,8.0,Calm,Calm,-,N/A,,Overcast,0,2013-03-21 08:52:00
5:52 AM,10.9,7.0,84,29.79,7.0,Calm,Calm,-,N/A,,Mostly Cloudy,0,2013-03-21 09:52:00
6:52 AM,12.0,9.0,88,29.79,6.0,Calm,Calm,-,N/A,,Mostly Cloudy,0,2013-03-21 10:52:00
7:52 AM,12.9,9.0,84,29.80,6.0,Calm,Calm,-,N/A,,Clear,0,2013-03-21 11:52:00
8:52 AM,18.0,14.0,84,29.79,6.0,Calm,Calm,-,N/A,,Scattered Clouds,0,2013-03-21 12:52:00
9:52 AM,25.0,19.0,78,29.77,10.0,Calm,Calm,-,N/A,,Mostly Cloudy,0,2013-03-21 13:52:00
10:52 AM,30.0,12.0,47,29.75,10.0,NW,6.9,-,N/A,,Overcast,310,2013-03-21 14:52:00
11:52 AM,32.0,10.9,42,29.73,10.0,Calm,Calm,-,N/A,,Mostly Cloudy,0,2013-03-21 15:52:00
12:52 PM,33.1,9.0,37,29.70,10.0,SSE,3.5,-,N/A,,Overcast,160,2013-03-21 16:52:00
1:52 PM,34.0,9.0,35,29.67,10.0,Calm,Calm,-,N/A,,Overcast,0,2013-03-21 17:52:00
2:52 PM,37.0,8.1,30,29.64,10.0,Calm,Calm,-,N/A,,Overcast,0,2013-03-21 18:52:00
3:52 PM,36.0,10.9,36,29.62,10.0,WNW,6.9,-,N/A,,Overcast,300,2013-03-21 19:52:00
4:52 PM,36.0,10.9,36,29.61,10.0,WNW,5.8,-,N/A,,Mostly Cloudy,300,2013-03-21 20:52:00
5:52 PM,37.9,8.1,29,29.61,10.0,Calm,Calm,-,N/A,,Mostly Cloudy,0,2013-03-21 21:52:00
6:52 PM,34.0,10.0,37,29.62,10.0,WNW,4.6,-,N/A,,Scattered Clouds,290,2013-03-21 22:52:00
7:52 PM,32.0,10.0,40,29.64,10.0,WNW,9.2,-,N/A,,Clear,290,2013-03-21 23:52:00
8:52 PM,30.0,12.0,47,29.65,10.0,NW,6.9,-,N/A,,Clear,310,2013-03-22 00:52:00
9:52 PM,28.9,12.9,51,29.65,10.0,NW,6.9,-,N/A,,Clear,310,2013-03-22 01:52:00
10:52 PM,27.0,12.9,56,29.64,10.0,NW,3.5,-,N/A,,Overcast,310,2013-03-22 02:52:00
11:52 PM,27.0,14.0,58,29.66,10.0,WNW,5.8,-,N/A,,Overcast,290,2013-03-22 03:52:00